Weather Roundup
Issued by NWS

Home | Current Version | Previous Version | Graphics & Text | Print | Product List | Glossary Off
Versions: 1 2 3 4 5 6 7 8 9 10 11 12 13 14 15 16 17 18 19 20 21 22 23 24 25 26 27 28 29 30 31 32 33 34 35 36 37 38 39 40 41 42 43 44 45 46 47 48 49 50

000
NZUS93 KARX 291859
HRRWXR

CURRENT HOURLY OBSERVATIONS ACROSS
MUCH OF THE UPPER MISSISSIPPI VALLEY
NATIONAL WEATHER SERVICE LA CROSSE WI
200 PM CDT SUN MAY 29 2016


...SOUTHEAST MINNESOTA...


CITY           SKY/WX    TMP DP  RH WIND       PRES   REMARKS
ROCHESTER      PTSUNNY   75  62  64 W18       30.00S
ROCHESTER/MAYO FAIR      74  56  53 W21G32    29.99R
WINONA         MOSUNNY   77  55  47 NW12G17   29.96S
AUSTIN         MOSUNNY   75  59  57 W15G21    30.00F
ALBERT LEA     MOSUNNY   75  61  60 W8        30.01S
DODGE CENTER   SUNNY     75  57  53 W14G21    30.00S
PRESTON        MOSUNNY   74  59  58 W16G24    30.01S
OWATONNA       MOSUNNY   73  57  56 W14       30.00S
FARIBAULT      MOSUNNY   75  61  60 W12       29.99S
$$

...ELSEWHERE IN MINNESOTA...


CITY           SKY/WX    TMP DP  RH WIND       PRES   REMARKS
MINNEAPOLIS    PTSUNNY   75  56  51 NW14      29.96S
INTNL FALLS    CLOUDY    62  54  74 W13G20    29.86R
DULUTH         CLOUDY    63  55  75 W20G28    29.88R
RED WING       MOSUNNY   77  57  50 NW16      29.95S
REDWOOD FALLS  MOSUNNY   77  57  50 W13       29.99S
MANKATO        MOSUNNY   75  59  57 W16       30.00S
WORTHINGTON    NOT AVBL
FAIRMONT       MOSUNNY   75  54  46 W17G24    30.02S
$$

...SOUTHWEST WISCONSIN...


CITY           SKY/WX    TMP DP  RH WIND       PRES   REMARKS
LA CROSSE      MOSUNNY   78  57  48 W15G28    29.95S
PRAIRIE DU CHI MOSUNNY   77  54  44 W16       30.00S
BOSCOBEL       MOSUNNY   79  59  50 W14       29.98F
LONE ROCK      NOT AVBL
PLATTEVILLE    MOSUNNY   76  60  57 W23       30.02S
FORT MC COY    MOSUNNY   76  58  53 W16G24    29.95F
MAUSTON-NEW LI MOCLDY    75  59  58 W14G20    29.94S
VIROQUA        MOCLDY    75  57  53 W13G26    29.98F
WIS DELLS      PTSUNNY   75  56  51 W9        29.96S
$$

...ELSEWHERE IN WISCONSIN...


CITY           SKY/WX    TMP DP  RH WIND       PRES   REMARKS
MILWAUKEE      PTSUNNY   75  59  57 W10       29.96S
MADISON        MOSUNNY   76  58  53 W10G22    29.96S
GREEN BAY      PTSUNNY   72  63  73 W15G21    29.88S
EAU CLAIRE     RAIN      67  60  78 W18       29.93S
BLACK RVR FLS  MOCLDY    74  56  53 W15G28    29.94S
MEDFORD        CLOUDY    67  62  83 W8G23     29.90S
WAUSAU         CLOUDY    72  60  66 W16G22    29.88S
WIS RAPIDS     CLOUDY    72  56  57 W20G29    29.93S
MARSHFIELD     LGT RAIN  65  61  87 W15G22    29.93R FOG
RICE LAKE      CLOUDY    71  58  64 W18G26    29.94S
$$

...NORTHEAST IOWA...


CITY           SKY/WX    TMP DP  RH WIND       PRES   REMARKS
WATERLOO       MOSUNNY   79  58  48 W17       30.03S
DUBUQUE        MOSUNNY   76  60  57 W17       30.04S
DECORAH        PTSUNNY   73  59  60 W10G18    30.01R
MASON CITY     MOSUNNY   76  60  57 W18G25    30.04F
CHARLES CITY   MOSUNNY   75  61  60 W15G23    30.03F
OELWEIN        PTSUNNY   75  59  57 W14G25    30.04S
$$

...ELSEWHERE IN IOWA...


CITY           SKY/WX    TMP DP  RH WIND       PRES   REMARKS
DES MOINES     MOSUNNY   80  54  40 W6        30.06F
IOWA CITY      MOSUNNY   79  58  48 W9        30.06F
FORT DODGE     PTSUNNY   79  55  44 W7        30.05F
MARSHALLTOWN   SUNNY     77  60  55 W13       30.05F
CEDAR RAPIDS   MOSUNNY   77  61  57 W14G21    30.04F
$$

...NORTHERN ILLINOIS...


CITY           SKY/WX    TMP DP  RH WIND       PRES   REMARKS
CHICAGO-OHARE  MOSUNNY   76  60  57 SW17      30.01S
CHICAGO-MIDWAY MOSUNNY   79  58  48 W15       30.01S
MOLINE         MOSUNNY   80  58  46 W13G21    30.04S
ROCKFORD       PTSUNNY   78  58  49 W14G23    30.03S
PEORIA         MOSUNNY   82  55  39 NW8G18    30.06F
$$

NOTE: "FAIR" INDICATES FEW OR NO CLOUDS BELOW 12,000 FEET WITH NO
SIGNIFICANT WEATHER AND/OR OBSTRUCTIONS TO VISIBILITY. WIND
SPEEDS ARE IN MILES-PER-HOUR.




USA.gov is the U.S. government's official web portal to all federal, state and local government web resources and services.